Year,Month,Day,Hour,Minute,Value (Times are PST for temperature in C)
2013,04,24,00,00,5.00
2013,04,24,00,01,4.90
2013,04,24,00,02,4.90
2013,04,24,00,03,4.90
2013,04,24,00,04,4.90
2013,04,24,00,05,4.80
2013,04,24,00,06,4.80
2013,04,24,00,07,4.80
2013,04,24,00,08,4.80
2013,04,24,00,09,4.70
2013,04,24,00,10,4.70
2013,04,24,00,11,4.70
2013,04,24,00,12,4.70
2013,04,24,00,18,4.60
2013,04,24,00,19,4.60
2013,04,24,00,20,4.60
2013,04,24,00,21,4.50
2013,04,24,00,22,4.50
2013,04,24,00,23,4.50
2013,04,24,00,24,4.50
2013,04,24,00,25,4.50
2013,04,24,00,26,4.50
2013,04,24,00,27,4.50
2013,04,24,00,28,4.50
2013,04,24,00,29,4.50
2013,04,24,00,30,4.40
2013,04,24,00,31,4.40
2013,04,24,00,32,4.40
2013,04,24,00,33,4.40
2013,04,24,00,34,4.40
2013,04,24,00,35,4.40
2013,04,24,00,36,4.40
2013,04,24,00,37,4.30
2013,04,24,00,38,4.30
2013,04,24,00,39,4.30
2013,04,24,00,40,4.30
2013,04,24,00,41,4.30
2013,04,24,00,42,4.30
2013,04,24,00,43,4.20
2013,04,24,00,44,4.20
2013,04,24,00,45,4.20
2013,04,24,00,46,4.20
2013,04,24,00,47,4.20
2013,04,24,00,48,4.20
2013,04,24,00,49,4.20
2013,04,24,00,50,4.10
2013,04,24,00,51,4.10
2013,04,24,00,52,4.10
2013,04,24,00,53,4.10
2013,04,24,00,54,4.10
2013,04,24,00,55,4.10
2013,04,24,00,56,4.00
2013,04,24,00,57,4.00
2013,04,24,00,58,4.00
2013,04,24,00,59,4.00
2013,04,24,01,00,4.00
2013,04,24,01,01,3.90
2013,04,24,01,02,3.90
2013,04,24,01,03,3.90
2013,04,24,01,04,3.90
2013,04,24,01,05,3.90
2013,04,24,01,06,3.90
2013,04,24,01,07,3.80
2013,04,24,01,08,3.80
2013,04,24,01,09,3.80
2013,04,24,01,10,3.80
2013,04,24,01,11,3.80
2013,04,24,01,12,3.80
2013,04,24,01,13,3.80
2013,04,24,01,14,3.80
2013,04,24,01,15,3.80
2013,04,24,01,16,3.80
2013,04,24,01,17,3.80
2013,04,24,01,18,3.80
2013,04,24,01,19,3.80
2013,04,24,01,20,3.80
2013,04,24,01,21,3.70
2013,04,24,01,22,3.70
2013,04,24,01,23,3.70
2013,04,24,01,24,3.70
2013,04,24,01,25,3.70
2013,04,24,01,26,3.70
2013,04,24,01,27,3.70
2013,04,24,01,28,3.70
2013,04,24,01,29,3.70
2013,04,24,01,30,3.70
2013,04,24,01,31,3.60
2013,04,24,01,32,3.60
2013,04,24,01,33,3.60
2013,04,24,01,34,3.60
2013,04,24,01,35,3.60
2013,04,24,01,36,3.60
2013,04,24,01,37,3.60
2013,04,24,01,38,3.60
2013,04,24,01,39,3.60
2013,04,24,01,40,3.60
2013,04,24,01,41,3.60
2013,04,24,01,42,3.60
2013,04,24,01,43,3.60
2013,04,24,01,44,3.50
2013,04,24,01,45,3.50
2013,04,24,01,46,3.50
2013,04,24,01,47,3.50
2013,04,24,01,48,3.40
2013,04,24,01,49,3.40
2013,04,24,01,50,3.40
2013,04,24,01,51,3.40
2013,04,24,01,52,3.40
2013,04,24,01,53,3.30
2013,04,24,01,54,3.30
2013,04,24,01,55,3.30
2013,04,24,01,56,3.30
2013,04,24,01,57,3.30
2013,04,24,01,58,3.30
2013,04,24,01,59,3.30
2013,04,24,02,00,3.20
2013,04,24,02,01,3.20
2013,04,24,02,02,3.20
2013,04,24,02,03,3.20
2013,04,24,02,04,3.20
2013,04,24,02,05,3.20
2013,04,24,02,06,3.20
2013,04,24,02,07,3.20
2013,04,24,02,08,3.20
2013,04,24,02,09,3.20
2013,04,24,02,10,3.20
2013,04,24,02,11,3.20
2013,04,24,02,12,3.20
2013,04,24,02,13,3.20
2013,04,24,02,14,3.20
2013,04,24,02,15,3.20
2013,04,24,02,16,3.20
2013,04,24,02,17,3.20
2013,04,24,02,18,3.20
2013,04,24,02,19,3.10
2013,04,24,02,20,3.10
2013,04,24,02,21,3.10
2013,04,24,02,22,3.10
2013,04,24,02,23,3.10
2013,04,24,02,24,3.10
2013,04,24,02,25,3.10
2013,04,24,02,26,3.10
2013,04,24,02,27,3.10
2013,04,24,02,28,3.00
2013,04,24,02,29,3.00
2013,04,24,02,30,3.00
2013,04,24,02,31,3.00
2013,04,24,02,32,3.00
2013,04,24,02,33,2.90
2013,04,24,02,34,2.90
2013,04,24,02,35,2.90
2013,04,24,02,36,2.90
2013,04,24,02,37,2.90
2013,04,24,02,38,2.90
2013,04,24,02,39,2.90
2013,04,24,02,40,2.90
2013,04,24,02,41,2.90
2013,04,24,02,42,2.90
2013,04,24,02,43,2.90
2013,04,24,02,44,2.90
2013,04,24,02,45,2.80
2013,04,24,02,46,2.80
2013,04,24,02,47,2.80
2013,04,24,02,48,2.80
2013,04,24,02,49,2.80
2013,04,24,02,50,2.80
2013,04,24,02,51,2.70
2013,04,24,02,52,2.70
2013,04,24,02,53,2.70
2013,04,24,02,54,2.70
2013,04,24,02,55,2.70
2013,04,24,02,56,2.70
2013,04,24,02,57,2.70
2013,04,24,02,58,2.70
2013,04,24,02,59,2.70
2013,04,24,03,00,2.70
2013,04,24,03,01,2.70
2013,04,24,03,02,2.70
2013,04,24,03,03,2.70
2013,04,24,03,04,2.70
2013,04,24,03,05,2.70
2013,04,24,03,06,2.70
2013,04,24,03,07,2.70
2013,04,24,03,08,2.70
2013,04,24,03,09,2.70
2013,04,24,03,10,2.70
2013,04,24,03,11,2.70
2013,04,24,03,12,2.70
2013,04,24,03,13,2.70
2013,04,24,03,14,2.70
2013,04,24,03,15,2.70
2013,04,24,03,16,2.60
2013,04,24,03,17,2.60
2013,04,24,03,18,2.60
2013,04,24,03,19,2.60
2013,04,24,03,20,2.50
2013,04,24,03,21,2.50
2013,04,24,03,22,2.50
2013,04,24,03,23,2.50
2013,04,24,03,24,2.50
2013,04,24,03,25,2.50
2013,04,24,03,26,2.50
2013,04,24,03,27,2.50
2013,04,24,03,28,2.50
2013,04,24,03,29,2.50
2013,04,24,03,30,2.50
2013,04,24,03,31,2.50
2013,04,24,03,32,2.50
2013,04,24,03,33,2.50
2013,04,24,03,34,2.50
2013,04,24,03,35,2.50
2013,04,24,03,36,2.50
2013,04,24,03,37,2.50
2013,04,24,03,38,2.50
2013,04,24,03,39,2.50
2013,04,24,03,40,2.50
2013,04,24,03,41,2.50
2013,04,24,03,42,2.50
2013,04,24,03,43,2.50
2013,04,24,03,44,2.50
2013,04,24,03,45,2.50
2013,04,24,03,46,2.40
2013,04,24,03,47,2.40
2013,04,24,03,48,2.40
2013,04,24,03,49,2.40
2013,04,24,03,50,2.40
2013,04,24,03,51,2.40
2013,04,24,03,52,2.40
2013,04,24,03,53,2.40
2013,04,24,03,54,2.40
2013,04,24,03,55,2.40
2013,04,24,03,56,2.40
2013,04,24,03,57,2.40
2013,04,24,03,58,2.40
2013,04,24,03,59,2.40
2013,04,24,04,00,2.40
2013,04,24,04,01,2.30
2013,04,24,04,02,2.30
2013,04,24,04,03,2.30
2013,04,24,04,04,2.30
2013,04,24,04,05,2.30
2013,04,24,04,06,2.30
2013,04,24,04,07,2.30
2013,04,24,04,08,2.30
2013,04,24,04,09,2.30
2013,04,24,04,10,2.30
2013,04,24,04,11,2.30
2013,04,24,04,12,2.30
2013,04,24,04,13,2.30
2013,04,24,04,14,2.30
2013,04,24,04,15,2.30
2013,04,24,04,16,2.20
2013,04,24,04,17,2.20
2013,04,24,04,18,2.20
2013,04,24,04,19,2.20
2013,04,24,04,20,2.20
2013,04,24,04,21,2.20
2013,04,24,04,22,2.20
2013,04,24,04,23,2.20
2013,04,24,04,24,2.20
2013,04,24,04,25,2.20
2013,04,24,04,26,2.20
2013,04,24,04,27,2.10
2013,04,24,04,28,2.10
2013,04,24,04,29,2.10
2013,04,24,04,30,2.10
2013,04,24,04,31,2.10
2013,04,24,04,32,2.10
2013,04,24,04,33,2.10
2013,04,24,04,34,2.10
2013,04,24,04,35,2.10
2013,04,24,04,36,2.10
2013,04,24,04,37,2.10
2013,04,24,04,38,2.10
2013,04,24,04,39,2.10
2013,04,24,04,40,2.10
2013,04,24,04,41,2.00
2013,04,24,04,42,2.00
2013,04,24,04,43,2.00
2013,04,24,04,44,2.10
2013,04,24,04,45,2.10
2013,04,24,04,46,2.10
2013,04,24,04,47,2.10
2013,04,24,04,48,2.10
2013,04,24,04,49,2.10
2013,04,24,04,50,2.10
2013,04,24,04,51,2.10
2013,04,24,04,52,2.10
2013,04,24,04,53,2.10
2013,04,24,04,54,2.10
2013,04,24,04,55,2.10
2013,04,24,04,56,2.10
2013,04,24,04,57,2.10
2013,04,24,04,58,2.10
2013,04,24,04,59,2.10
2013,04,24,05,00,2.10
2013,04,24,05,01,2.10
2013,04,24,05,02,2.00
2013,04,24,05,03,2.00
2013,04,24,05,04,2.00
2013,04,24,05,05,2.00
2013,04,24,05,06,2.00
2013,04,24,05,07,1.90
2013,04,24,05,08,2.00
2013,04,24,05,09,2.00
2013,04,24,05,10,2.00
2013,04,24,05,11,2.00
2013,04,24,05,12,1.90
2013,04,24,05,13,1.90
2013,04,24,05,14,1.90
2013,04,24,05,15,1.90
2013,04,24,05,16,1.90
2013,04,24,05,17,2.00
2013,04,24,05,18,2.00
2013,04,24,05,19,2.00
2013,04,24,05,20,2.00
2013,04,24,05,21,2.00
2013,04,24,05,22,2.00
2013,04,24,05,23,1.90
2013,04,24,05,24,1.90
2013,04,24,05,25,1.90
2013,04,24,05,26,1.90
2013,04,24,05,27,1.90
2013,04,24,05,28,1.80
2013,04,24,05,29,1.80
2013,04,24,05,30,1.80
2013,04,24,05,31,1.80
2013,04,24,05,32,1.80
2013,04,24,05,33,1.80
2013,04,24,05,34,1.80
2013,04,24,05,35,1.70
2013,04,24,05,36,1.70
2013,04,24,05,37,1.70
2013,04,24,05,38,1.70
2013,04,24,05,39,1.70
2013,04,24,05,40,1.60
2013,04,24,05,41,1.60
2013,04,24,05,42,1.60
2013,04,24,05,43,1.60
2013,04,24,05,44,1.60
2013,04,24,05,45,1.60
2013,04,24,05,46,1.60
2013,04,24,05,47,1.60
2013,04,24,05,48,1.60
2013,04,24,05,49,1.50
2013,04,24,05,50,1.50
2013,04,24,05,51,1.50
2013,04,24,05,52,1.60
2013,04,24,05,53,1.60
2013,04,24,05,54,1.60
2013,04,24,05,55,1.60
2013,04,24,05,56,1.60
2013,04,24,05,57,1.60
2013,04,24,05,58,1.60
2013,04,24,05,59,1.60
2013,04,24,06,00,1.60
2013,04,24,06,01,1.60
2013,04,24,06,02,1.60
2013,04,24,06,03,1.60
2013,04,24,06,04,1.70
2013,04,24,06,05,1.70
2013,04,24,06,06,1.70
2013,04,24,06,07,1.70
2013,04,24,06,08,1.70
2013,04,24,06,09,1.70
2013,04,24,06,10,1.70
2013,04,24,06,11,1.70
2013,04,24,06,12,1.70
2013,04,24,06,13,1.70
2013,04,24,06,14,1.70
2013,04,24,06,15,1.60
2013,04,24,06,16,1.60
2013,04,24,06,17,1.60
2013,04,24,06,18,1.60
2013,04,24,06,19,1.60
2013,04,24,06,20,1.60
2013,04,24,06,21,1.60
2013,04,24,06,22,1.60
2013,04,24,06,23,1.60
2013,04,24,06,24,1.60
2013,04,24,06,25,1.60
2013,04,24,06,26,1.50
2013,04,24,06,27,1.50
2013,04,24,06,28,1.50
2013,04,24,06,29,1.50
2013,04,24,06,30,1.50
2013,04,24,06,31,1.50
2013,04,24,06,32,1.50
2013,04,24,06,33,1.60
2013,04,24,06,34,1.60
2013,04,24,06,35,1.50
2013,04,24,06,36,1.60
2013,04,24,06,37,1.60
2013,04,24,06,38,1.60
2013,04,24,06,39,1.60
2013,04,24,06,40,1.60
2013,04,24,06,41,1.60
2013,04,24,06,42,1.60
2013,04,24,06,43,1.70
2013,04,24,06,44,1.70
2013,04,24,06,45,1.70
2013,04,24,06,46,1.70
2013,04,24,06,47,1.70
2013,04,24,06,48,1.80
2013,04,24,06,49,1.80
2013,04,24,06,50,1.80
2013,04,24,06,51,1.90
2013,04,24,06,52,1.90
2013,04,24,06,53,2.00
2013,04,24,06,54,2.00
2013,04,24,06,55,2.10
2013,04,24,06,56,2.10
2013,04,24,06,57,2.10
2013,04,24,06,58,2.10
2013,04,24,06,59,2.10
2013,04,24,07,00,2.10
2013,04,24,07,01,2.20
2013,04,24,07,02,2.20
2013,04,24,07,03,2.20
2013,04,24,07,04,2.20
2013,04,24,07,05,2.20
2013,04,24,07,06,2.20
2013,04,24,07,07,2.20
2013,04,24,07,08,2.20
2013,04,24,07,09,2.20
2013,04,24,07,10,2.20
2013,04,24,07,11,2.20
2013,04,24,07,12,2.30
2013,04,24,07,13,2.30
2013,04,24,07,14,2.30
2013,04,24,07,15,2.30
2013,04,24,07,16,2.40
2013,04,24,07,17,2.40
2013,04,24,07,18,2.40
2013,04,24,07,19,2.50
2013,04,24,07,20,2.50
2013,04,24,07,21,2.60
2013,04,24,07,22,2.70
2013,04,24,07,23,2.80
2013,04,24,07,24,2.90
2013,04,24,07,25,3.00
2013,04,24,07,26,3.00
2013,04,24,07,27,3.10
2013,04,24,07,28,3.20
2013,04,24,07,29,3.30
2013,04,24,07,30,3.40
2013,04,24,07,31,3.60
2013,04,24,07,32,3.70
2013,04,24,07,33,3.70
2013,04,24,07,34,3.80
2013,04,24,07,35,3.90
2013,04,24,07,36,3.90
2013,04,24,07,37,4.00
2013,04,24,07,38,4.00
2013,04,24,07,39,4.10
2013,04,24,07,40,4.20
2013,04,24,07,41,4.30
2013,04,24,07,42,4.40
2013,04,24,07,43,4.50
2013,04,24,07,44,4.60
2013,04,24,07,45,4.70
2013,04,24,07,46,4.80
2013,04,24,07,47,4.90
2013,04,24,07,48,5.00
2013,04,24,07,49,5.00
2013,04,24,07,50,5.10
2013,04,24,07,51,5.10
2013,04,24,07,52,5.20
2013,04,24,07,53,5.30
2013,04,24,07,54,5.50
2013,04,24,07,55,5.60
2013,04,24,07,56,5.70
2013,04,24,07,57,5.80
2013,04,24,07,58,5.90
2013,04,24,07,59,6.00
2013,04,24,08,00,6.00
2013,04,24,08,01,6.10
2013,04,24,08,02,6.20
2013,04,24,08,03,6.30
2013,04,24,08,04,6.40
2013,04,24,08,05,6.50
2013,04,24,08,06,6.70
2013,04,24,08,07,6.80
2013,04,24,08,08,7.00
2013,04,24,08,09,7.20
2013,04,24,08,10,7.30
2013,04,24,08,11,7.40
2013,04,24,08,12,7.60
2013,04,24,08,13,7.80
2013,04,24,08,14,8.00
2013,04,24,08,15,8.20
2013,04,24,08,16,8.40
2013,04,24,08,17,8.60
2013,04,24,08,18,8.80
2013,04,24,08,19,9.00
2013,04,24,08,20,9.20
2013,04,24,08,21,9.40
2013,04,24,08,22,9.60
2013,04,24,08,23,9.80
2013,04,24,08,24,9.90
2013,04,24,08,25,10.10
2013,04,24,08,26,10.20
2013,04,24,08,27,10.30
2013,04,24,08,28,10.50
2013,04,24,08,29,10.60
2013,04,24,08,30,10.70
2013,04,24,08,31,10.90
2013,04,24,08,32,11.00
2013,04,24,08,33,11.10
2013,04,24,08,34,11.20
2013,04,24,08,35,11.20
2013,04,24,08,36,11.30
2013,04,24,08,37,11.50
2013,04,24,08,38,11.60
2013,04,24,08,39,11.70
2013,04,24,08,40,11.80
2013,04,24,08,41,11.90
2013,04,24,08,42,12.00
2013,04,24,08,43,12.10
2013,04,24,08,44,12.10
2013,04,24,08,45,12.20
2013,04,24,08,46,12.30
2013,04,24,08,47,12.40
2013,04,24,08,48,12.50
2013,04,24,08,49,12.50
2013,04,24,08,50,12.60
2013,04,24,08,51,12.60
2013,04,24,08,52,12.70
2013,04,24,08,53,12.80
2013,04,24,08,54,12.90
2013,04,24,08,55,12.90
2013,04,24,08,56,13.00
2013,04,24,08,57,13.10
2013,04,24,08,58,13.20
2013,04,24,08,59,13.20
2013,04,24,09,00,13.20
2013,04,24,09,01,13.30
2013,04,24,09,02,13.30
2013,04,24,09,03,13.30
2013,04,24,09,04,13.30
2013,04,24,09,05,13.30
2013,04,24,09,06,13.30
2013,04,24,09,07,13.40
2013,04,24,09,08,13.40
2013,04,24,09,09,13.40
2013,04,24,09,10,13.40
2013,04,24,09,11,13.40
2013,04,24,09,12,13.30
2013,04,24,09,13,13.20
2013,04,24,09,14,13.10
2013,04,24,09,15,13.00
2013,04,24,09,16,12.90
2013,04,24,09,17,12.80
2013,04,24,09,18,12.80
2013,04,24,09,19,12.80
2013,04,24,09,20,12.70
2013,04,24,09,21,12.80
2013,04,24,09,22,12.80
2013,04,24,09,23,12.80
2013,04,24,09,24,12.90
2013,04,24,09,25,13.00
2013,04,24,09,26,13.00
2013,04,24,09,27,13.10
2013,04,24,09,28,13.10
2013,04,24,09,29,13.20
2013,04,24,09,30,13.30
2013,04,24,09,31,13.30
2013,04,24,09,32,13.30
2013,04,24,09,33,13.30
2013,04,24,09,34,13.30
2013,04,24,09,35,13.40
2013,04,24,09,36,13.40
2013,04,24,09,37,13.50
2013,04,24,09,38,13.50
2013,04,24,09,39,13.40
2013,04,24,09,40,13.50
2013,04,24,09,41,13.50
2013,04,24,09,42,13.60
2013,04,24,09,43,13.60
2013,04,24,09,44,13.70
2013,04,24,09,45,13.70
2013,04,24,09,46,13.80
2013,04,24,09,47,13.80
2013,04,24,09,48,13.90
2013,04,24,09,49,13.90
2013,04,24,09,50,13.90
2013,04,24,09,51,13.80
2013,04,24,09,52,13.70
2013,04,24,09,53,13.70
2013,04,24,09,54,13.70
2013,04,24,09,55,13.70
2013,04,24,09,56,13.80
2013,04,24,09,57,13.80
2013,04,24,09,58,13.90
2013,04,24,09,59,13.90
2013,04,24,10,00,13.90
2013,04,24,10,01,13.90
2013,04,24,10,02,14.00
2013,04,24,10,03,14.00
2013,04,24,10,04,14.10
2013,04,24,10,05,14.20
2013,04,24,10,06,14.20
2013,04,24,10,07,14.20
2013,04,24,10,08,14.20
2013,04,24,10,09,14.20
2013,04,24,10,10,14.30
2013,04,24,10,11,14.30
2013,04,24,10,12,14.40
2013,04,24,10,13,14.40
2013,04,24,10,14,14.50
2013,04,24,10,15,14.60
2013,04,24,10,16,14.70
2013,04,24,10,17,14.90
2013,04,24,10,18,15.00
2013,04,24,10,19,15.00
2013,04,24,10,20,15.00
2013,04,24,10,21,15.00
2013,04,24,10,22,15.00
2013,04,24,10,23,15.00
2013,04,24,10,24,14.90
2013,04,24,10,25,14.80
2013,04,24,10,26,14.80
2013,04,24,10,27,14.70
2013,04,24,10,28,14.70
2013,04,24,10,29,14.60
2013,04,24,10,30,14.60
2013,04,24,10,31,14.60
2013,04,24,10,32,14.60
2013,04,24,10,33,14.70
2013,04,24,10,34,14.70
2013,04,24,10,35,14.70
2013,04,24,10,36,14.80
2013,04,24,10,37,14.60
2013,04,24,10,38,14.50
2013,04,24,10,39,14.50
2013,04,24,10,40,14.40
2013,04,24,10,41,14.40
2013,04,24,10,42,14.40
2013,04,24,10,43,14.40
2013,04,24,10,44,14.30
2013,04,24,10,45,14.30
2013,04,24,10,46,14.20
2013,04,24,10,47,14.20
2013,04,24,10,48,14.20
2013,04,24,10,49,14.20
2013,04,24,10,50,14.30
2013,04,24,10,51,14.50
2013,04,24,10,52,14.70
2013,04,24,10,53,14.80
2013,04,24,10,54,15.00
2013,04,24,10,55,15.00
2013,04,24,10,56,15.10
2013,04,24,10,57,15.10
2013,04,24,10,58,15.00
2013,04,24,10,59,15.00
2013,04,24,11,00,14.90
2013,04,24,11,01,14.80
2013,04,24,11,02,14.80
2013,04,24,11,03,14.80
2013,04,24,11,04,14.70
2013,04,24,11,05,14.60
2013,04,24,11,06,14.40
2013,04,24,11,07,14.30
2013,04,24,11,08,14.20
2013,04,24,11,09,14.20
2013,04,24,11,10,14.20
2013,04,24,11,11,14.20
2013,04,24,11,12,14.30
2013,04,24,11,13,14.50
2013,04,24,11,14,14.60
2013,04,24,11,15,14.70
2013,04,24,11,16,14.90
2013,04,24,11,17,15.00
2013,04,24,11,18,15.00
2013,04,24,11,19,15.00
2013,04,24,11,20,15.00
2013,04,24,11,21,15.10
2013,04,24,11,22,15.20
2013,04,24,11,23,15.20
2013,04,24,11,24,15.30
2013,04,24,11,25,15.30
2013,04,24,11,26,15.40
2013,04,24,11,27,15.30
2013,04,24,11,28,15.10
2013,04,24,11,29,15.00
2013,04,24,11,30,14.90
2013,04,24,11,31,14.90
2013,04,24,11,32,14.90
2013,04,24,11,33,15.00
2013,04,24,11,34,15.00
2013,04,24,11,35,15.00
2013,04,24,11,36,15.20
2013,04,24,11,37,15.10
2013,04,24,11,38,15.00
2013,04,24,11,39,15.00
2013,04,24,11,40,15.00
2013,04,24,11,41,15.00
2013,04,24,11,42,15.00
2013,04,24,11,43,15.00
2013,04,24,11,44,15.20
2013,04,24,11,45,15.30
2013,04,24,11,46,15.40
2013,04,24,11,47,15.50
2013,04,24,11,48,15.50
2013,04,24,11,49,15.30
2013,04,24,11,50,15.20
2013,04,24,11,51,15.30
2013,04,24,11,52,15.30
2013,04,24,11,53,15.20
2013,04,24,11,54,15.00
2013,04,24,11,55,15.00
2013,04,24,11,56,14.80
2013,04,24,11,57,14.80
2013,04,24,11,58,14.80
2013,04,24,11,59,14.90
2013,04,24,12,00,14.90
2013,04,24,12,01,14.80
2013,04,24,12,02,14.90
2013,04,24,12,03,14.90
2013,04,24,12,04,14.80
2013,04,24,12,05,14.80
2013,04,24,12,06,14.80
2013,04,24,12,07,14.90
2013,04,24,12,08,15.00
2013,04,24,12,09,15.00
2013,04,24,12,10,15.10
2013,04,24,12,11,15.30
2013,04,24,12,12,15.40
2013,04,24,12,13,15.40
2013,04,24,12,14,15.50
2013,04,24,12,15,15.50
2013,04,24,12,16,15.60
2013,04,24,12,17,15.70
2013,04,24,12,18,15.60
2013,04,24,12,19,15.40
2013,04,24,12,20,15.30
2013,04,24,12,21,15.20
2013,04,24,12,22,15.10
2013,04,24,12,23,15.00
2013,04,24,12,24,15.00
2013,04,24,12,25,15.00
2013,04,24,12,26,15.00
2013,04,24,12,27,15.00
2013,04,24,12,28,15.00
2013,04,24,12,29,15.00
2013,04,24,12,30,15.30
2013,04,24,12,31,15.60
2013,04,24,12,32,15.60
2013,04,24,12,33,15.70
2013,04,24,12,34,15.80
2013,04,24,12,35,16.00
2013,04,24,12,36,16.10
2013,04,24,12,37,16.10
2013,04,24,12,38,16.20
2013,04,24,12,39,16.30
2013,04,24,12,40,16.20
2013,04,24,12,41,16.30
2013,04,24,12,42,16.30
2013,04,24,12,43,16.30
2013,04,24,12,44,16.40
2013,04,24,12,45,16.40
2013,04,24,12,46,16.40
2013,04,24,12,47,16.40
2013,04,24,12,48,16.40
2013,04,24,12,49,16.40
2013,04,24,12,50,16.40
2013,04,24,12,51,16.40
2013,04,24,12,52,16.50
2013,04,24,12,53,16.40
2013,04,24,12,54,16.30
2013,04,24,12,55,16.30
2013,04,24,12,56,16.20
2013,04,24,12,57,16.00
2013,04,24,12,58,15.90
2013,04,24,12,59,15.90
2013,04,24,13,00,15.80
2013,04,24,13,01,15.70
2013,04,24,13,02,15.60
2013,04,24,13,03,15.50
2013,04,24,13,04,15.30
2013,04,24,13,05,15.20
2013,04,24,13,06,15.10
2013,04,24,13,07,15.20
2013,04,24,13,08,15.30
2013,04,24,13,09,15.30
2013,04,24,13,10,15.40
2013,04,24,13,11,15.30
2013,04,24,13,12,15.30
2013,04,24,13,13,15.30
2013,04,24,13,14,15.30
2013,04,24,13,15,15.30
2013,04,24,13,16,15.40
2013,04,24,13,17,15.50
2013,04,24,13,18,15.60
2013,04,24,13,19,15.70
2013,04,24,13,20,15.70
2013,04,24,13,21,15.60
2013,04,24,13,22,15.50
2013,04,24,13,23,15.40
2013,04,24,13,24,15.40
2013,04,24,13,25,15.50
2013,04,24,13,26,15.50
2013,04,24,13,27,15.50
2013,04,24,13,28,15.50
2013,04,24,13,29,15.70
2013,04,24,13,30,15.90
2013,04,24,13,31,16.00
2013,04,24,13,32,16.20
2013,04,24,13,33,16.30
2013,04,24,13,34,16.40
2013,04,24,13,35,16.50
2013,04,24,13,36,16.50
2013,04,24,13,37,16.50
2013,04,24,13,38,16.60
2013,04,24,13,39,16.70
2013,04,24,13,40,16.80
2013,04,24,13,41,16.90
2013,04,24,13,42,17.00
2013,04,24,13,43,17.10
2013,04,24,13,44,17.10
2013,04,24,13,45,17.00
2013,04,24,13,46,17.10
2013,04,24,13,47,17.10
2013,04,24,13,48,17.20
2013,04,24,13,49,17.20
2013,04,24,13,50,17.20
2013,04,24,13,51,17.20
2013,04,24,13,52,17.20
2013,04,24,13,53,17.20
2013,04,24,13,54,17.20
2013,04,24,13,55,17.20
2013,04,24,13,56,17.20
2013,04,24,13,57,17.30
2013,04,24,13,58,17.40
2013,04,24,13,59,17.40
2013,04,24,14,00,17.40
2013,04,24,14,01,17.50
2013,04,24,14,02,17.50
2013,04,24,14,03,17.60
2013,04,24,14,04,17.70
2013,04,24,14,05,17.80
2013,04,24,14,06,17.70
2013,04,24,14,07,17.50
2013,04,24,14,08,17.30
2013,04,24,14,09,17.20
2013,04,24,14,10,17.00
2013,04,24,14,11,16.90
2013,04,24,14,12,16.70
2013,04,24,14,13,16.50
2013,04,24,14,14,16.40
2013,04,24,14,15,16.40
2013,04,24,14,16,16.40
2013,04,24,14,17,16.40
2013,04,24,14,18,16.40
2013,04,24,14,19,16.50
2013,04,24,14,20,16.50
2013,04,24,14,21,16.50
2013,04,24,14,22,16.60
2013,04,24,14,23,16.70
2013,04,24,14,24,16.70
2013,04,24,14,25,16.60
2013,04,24,14,26,16.60
2013,04,24,14,27,16.50
2013,04,24,14,28,16.60
2013,04,24,14,29,16.60
2013,04,24,14,30,16.70
2013,04,24,14,31,16.80
2013,04,24,14,32,16.90
2013,04,24,14,33,17.10
2013,04,24,14,34,17.20
2013,04,24,14,35,17.30
2013,04,24,14,36,17.30
2013,04,24,14,37,17.40
2013,04,24,14,38,17.40
2013,04,24,14,39,17.40
2013,04,24,14,40,17.40
2013,04,24,14,41,17.50
2013,04,24,14,42,17.50
2013,04,24,14,43,17.40
2013,04,24,14,44,17.50
2013,04,24,14,45,17.50
2013,04,24,14,46,17.50
2013,04,24,14,47,17.50
2013,04,24,14,48,17.60
2013,04,24,14,49,17.60
2013,04,24,14,50,17.60
2013,04,24,14,51,17.60
2013,04,24,14,52,17.60
2013,04,24,14,53,17.50
2013,04,24,14,54,17.50
2013,04,24,14,55,17.60
2013,04,24,14,56,17.70
2013,04,24,14,57,17.60
2013,04,24,14,58,17.40
2013,04,24,14,59,17.30
2013,04,24,15,00,17.40
2013,04,24,15,01,17.40
2013,04,24,15,02,17.40
2013,04,24,15,03,17.40
2013,04,24,15,04,17.40
2013,04,24,15,05,17.50
2013,04,24,15,06,17.60
2013,04,24,15,07,17.60
2013,04,24,15,08,17.60
2013,04,24,15,09,17.60
2013,04,24,15,10,17.50
2013,04,24,15,11,17.50
2013,04,24,15,12,17.40
2013,04,24,15,13,17.50
2013,04,24,15,14,17.60
2013,04,24,15,15,17.60
2013,04,24,15,16,17.60
2013,04,24,15,17,17.60
2013,04,24,15,18,17.70
2013,04,24,15,19,17.60
2013,04,24,15,20,17.60
2013,04,24,15,21,17.60
2013,04,24,15,22,17.70
2013,04,24,15,23,17.70
2013,04,24,15,24,17.80
2013,04,24,15,25,17.80
2013,04,24,15,26,17.80
2013,04,24,15,27,17.80
2013,04,24,15,28,17.80
2013,04,24,15,29,17.80
2013,04,24,15,30,17.80
2013,04,24,15,31,17.70
2013,04,24,15,32,17.70
2013,04,24,15,33,17.70
2013,04,24,15,34,17.70
2013,04,24,15,35,17.60
2013,04,24,15,36,17.50
2013,04,24,15,37,17.40
2013,04,24,15,38,17.30
2013,04,24,15,39,17.40
2013,04,24,15,40,17.40
2013,04,24,15,41,17.50
2013,04,24,15,42,17.60
2013,04,24,15,43,17.70
2013,04,24,15,44,17.60
2013,04,24,15,45,17.60
2013,04,24,15,46,17.60
2013,04,24,15,47,17.60
2013,04,24,15,48,17.50
2013,04,24,15,49,17.40
2013,04,24,15,50,17.30
2013,04,24,15,51,17.20
2013,04,24,15,52,17.20
2013,04,24,15,53,17.00
2013,04,24,15,54,17.00
2013,04,24,15,55,17.00
2013,04,24,15,56,17.00
2013,04,24,15,57,17.00
2013,04,24,15,58,17.10
2013,04,24,15,59,17.10
2013,04,24,16,00,17.20
2013,04,24,16,01,17.30
2013,04,24,16,02,17.30
2013,04,24,16,03,17.30
2013,04,24,16,04,17.20
2013,04,24,16,05,17.20
2013,04,24,16,06,17.20
2013,04,24,16,07,17.20
2013,04,24,16,08,17.30
2013,04,24,16,09,17.40
2013,04,24,16,10,17.40
2013,04,24,16,11,17.40
2013,04,24,16,12,17.40
2013,04,24,16,13,17.40
2013,04,24,16,14,17.40
2013,04,24,16,15,17.40
2013,04,24,16,16,17.30
2013,04,24,16,17,17.30
2013,04,24,16,18,17.20
2013,04,24,16,19,17.20
2013,04,24,16,20,17.10
2013,04,24,16,21,17.10
2013,04,24,16,22,17.00
2013,04,24,16,23,16.80
2013,04,24,16,24,16.70
2013,04,24,16,25,16.70
2013,04,24,16,26,16.70
2013,04,24,16,27,16.70
2013,04,24,16,28,16.60
2013,04,24,16,29,16.60
2013,04,24,16,30,16.50
2013,04,24,16,31,16.50
2013,04,24,16,32,16.50
2013,04,24,16,33,16.50
2013,04,24,16,34,16.50
2013,04,24,16,35,16.50
2013,04,24,16,36,16.30
2013,04,24,16,37,16.20
2013,04,24,16,38,16.10
2013,04,24,16,39,16.00
2013,04,24,16,40,15.90
2013,04,24,16,41,15.90
2013,04,24,16,42,16.00
2013,04,24,16,43,16.10
2013,04,24,16,44,16.20
2013,04,24,16,45,16.20
2013,04,24,16,46,16.20
2013,04,24,16,47,16.20
2013,04,24,16,48,16.20
2013,04,24,16,49,16.30
2013,04,24,16,50,16.30
2013,04,24,16,51,16.30
2013,04,24,16,52,16.30
2013,04,24,16,53,16.20
2013,04,24,16,54,16.20
2013,04,24,16,55,16.20
2013,04,24,16,56,16.20
2013,04,24,16,57,16.20
2013,04,24,16,58,16.30
2013,04,24,16,59,16.30
2013,04,24,17,00,16.30
2013,04,24,17,01,16.20
2013,04,24,17,02,16.10
2013,04,24,17,03,16.10
2013,04,24,17,04,16.10
2013,04,24,17,05,16.10
2013,04,24,17,06,16.00
2013,04,24,17,07,16.00
2013,04,24,17,08,16.10
2013,04,24,17,09,16.10
2013,04,24,17,10,16.10
2013,04,24,17,11,16.10
2013,04,24,17,12,16.10
2013,04,24,17,13,16.00
2013,04,24,17,14,16.00
2013,04,24,17,15,16.10
2013,04,24,17,16,16.00
2013,04,24,17,17,16.00
2013,04,24,17,18,15.90
2013,04,24,17,19,15.90
2013,04,24,17,20,15.90
2013,04,24,17,21,15.90
2013,04,24,17,22,15.80
2013,04,24,17,23,15.80
2013,04,24,17,24,15.90
2013,04,24,17,25,15.90
2013,04,24,17,26,16.00
2013,04,24,17,27,16.10
2013,04,24,17,28,16.20
2013,04,24,17,29,16.20
2013,04,24,17,30,16.20
2013,04,24,17,31,16.20
2013,04,24,17,32,16.10
2013,04,24,17,33,16.10
2013,04,24,17,34,16.10
2013,04,24,17,35,16.20
2013,04,24,17,36,16.20
2013,04,24,17,37,16.20
2013,04,24,17,38,16.30
2013,04,24,17,39,16.30
2013,04,24,17,40,16.30
2013,04,24,17,41,16.30
2013,04,24,17,42,16.30
2013,04,24,17,43,16.30
2013,04,24,17,44,16.30
2013,04,24,17,45,16.30
2013,04,24,17,46,16.20